826  
ASUS41 KPHI 202012  
RWRPHI  
 
REGIONAL WEATHER ROUNDUP  
NATIONAL WEATHER SERVICE MOUNT HOLLY NJ  
300 PM EST WED FEB 20 2019  
 
NOTE: "FAIR" INDICATES FEW OR NO CLOUDS BELOW 12,000 FEET WITH NO  
SIGNIFICANT WEATHER AND/OR S TO VISIBILITY
.  
 
* = STATION DOES NOT REPORT PRECIPITATION (E.G. RAIN, SNOW, ETC.)  
OR FOG.
 
 
NJZ015>026-202100-  
SOUTHERN NEW JERSEY  
 
CITY SKY/WX TMP DP RH WIND PRES REMARKS
 
POMONA MIX PCPN 33 33 100 E13 30.39F FOG WCI 24  
WILDWOOD* CLOUDY 35 33 92 E14 30.37F WCI 26  
MILLVILLE CLOUDY 32 30 92 E10 30.36F WCI 24  
WRIGHTSTOWN LGT SNOW 32 30 93 E6 30.37F FOG WCI 26  
MOUNT HOLLY MIX PCPN 31 28 89 NE3 30.40F FOG  
TRENTON LGT SNOW 32 26 78 NE6 30.41S VSB 3/4 WCI 26  
 

 
NJZ001>014-202100-  
NORTHERN NEW JERSEY  
 
CITY SKY/WX TMP DP RH WIND PRES REMARKS
 
SUSSEX SNOW 26 23 88 NE3 30.40F VSB 1/2  
ANDOVER* N/A 25 22 88 CALM 30.39F  
MORRISTOWN SNOW 28 27 93 NE7 30.44F VSB 1/2 WCI 21  
NEWARK SNOW 29 26 89 E8 30.45F VSB 1/2 WCI 21  
TETERBORO SNOW 28 25 88 E9 30.45F VSB 1/2 WCI 19  
CALDWELL SNOW 27 25 92 E8 30.43F VSB 1/2 WCI 19  
SOMERVILLE LGT SNOW 30 27 88 SE3 30.41F VSB 3/4  
ALLAIRE* LGT SNOW 31 29 92 E9 30.42F FOG WCI 23  
TOMS RIVER* LGT SNOW 33 31 92 SE8 30.41F FOG WCI 26  
 

 
PAZ043-044-047-054-055-060>062-066>071-202100-  
EASTERN PENNSYLVANIA  
 
CITY SKY/WX TMP DP RH WIND PRES REMARKS
 
PHILADELPHIA LGT SNOW 29 26 89 NE8 30.40F FOG WCI 21  
NORTH PHILA LGT SNOW 31 26 82 NE6 30.42F VSB 3/4 WCI 25  
BLUE BELL* PTSUNNY 28 28 100 NE5 30.41F VSB 3/4 WCI 23  
DOYLESTOWN LGT SNOW 28 24 85 VRB3 30.39S FOG  
QUAKERTOWN* FOG 27 25 93 CALM 30.39F VSB 1/2  
POTTSTOWN MIX PCPN 27 25 92 E6 30.41F VSB 1 WCI 20  
LANCASTER FRZ RAIN 29 27 92 E9 30.36F FOG WCI 20  
COATESVILLE LGT SNOW 28 27 93 E12 30.36F VSB 1 WCI 18  
READING CLOUDY 28 27 96 NE5 30.37F VSB 3/4 WCI 23  
ALLENTOWN SNOW 28 23 81 NE6 30.39F VSB 1/2 WCI 22  
MOUNT POCONO LGT SNOW 19 18 95 SE10 30.27F FOG WCI 7  
HAZLETON LGT SNOW 25 19 80 SE7 30.31F VSB 1 WCI 17  
LEHIGHTON LGT SNOW 28 25 86 CALM 30.39F VSB 3/4  
WILKES BARRE MIX PCPN 26 22 84 CALM 30.32F FOG  
 

 
DEZALL-MDZ008-012-015-019-020-202100-  
DELAWARE AND EASTERN MARYLAND  
 
CITY SKY/WX TMP DP RH WIND PRES REMARKS
 
WILMINGTON FRZ RAIN 30 28 92 E8 30.39F FOG WCI 22  
DOVER CLOUDY 34 32 92 E16 30.34F WCI 24  
GEORGETOWN LGT RAIN 39 35 86 E13 30.36F FOG WCI 31  
EASTON LGT RAIN 34 32 93 E3 30.39F  
PATUXENT RAIN 36 36 100 E8 30.35 FOG WCI 30  
OCEAN CITY RAIN 39 37 92 E16G24 30.35F FOG WCI 30  
WALLOPS ISLAND LGT RAIN 41 39 93 E17 30.33S  
CAMBRIDGE PTSUNNY 34 34 100 E6 30.35F FOG WCI 29  
SALISBURY LGT RAIN 37 37 100 E9 30.34F FOG WCI 30  
 

 
PAZ001-021-NYZ056-072-MDZ011-DCZ001-202100-  
OTHER NEARBY LOCATIONS  
 
CITY SKY/WX TMP DP RH WIND PRES REMARKS
 
HARRISBURG FRZ RAIN 28 25 88 SE6 30.36F FOG WCI 22  
STATE COLLEGE FRZ DRZL 27 25 93 S7 30.22F WCI 19  
WILLIAMSPORT FRZ RAIN 28 23 81 E16G25 30.31F WCI 16  
BINGHAMTON SNOW 24 22 91 S9 30.22F VSB 1/2 WCI 14  
NEW YORK CITY SNOW 28 24 85 MISG 30.47 VSB 1/2  
BALTIMORE FRZ DRZL 31 29 92 E5 30.35F WCI 26  
WASHINGTON DC LGT RAIN 33 30 88 SE5 30.36F FOG WCI 29  
 

 
 
 
CLICK HERE TO GO TO PREVIOUS BULLETINS.

The Nexlab PA Page
The Nexlab NJ Page
The Nexlab DE Page
The Nexlab MD Page Main Text Page